Simultaneous Nadir Overpasses (SNOs) Predictions

Prediction of SNOs between AQUA and METOP-C Satellite Orbit:

Table of predicted SNOs for the next 14.0 days since TLE Epoch: 11/21/2020
Index Date (AQUA) Time (AQUA) Lat,Lon (AQUA) SZA (AQUA ) Date (METOP-C) Time (METOP-C) Lat,Lon (METOP-C) SZA (METOP-C ) Distance(km) Time Diff (sec)
1 11/22/2020 13:20:55 73.68, -25.72 93.90 11/22/2020 13:20:26 73.67, -25.83 93.89 3.79 29
2 11/22/2020 14:10:22 -73.77, 141.73 86.01 11/22/2020 14:11:05 -73.79, 141.78 85.99 2.40 43
3 11/25/2020 08:05:30 -72.99,-125.48 86.25 11/25/2020 08:04:24 -72.96,-128.35 86.24 93.34 66
4 11/25/2020 08:55:12 73.73, 40.61 94.52 11/25/2020 08:54:49 73.73, 40.70 94.51 2.79 23
5 11/25/2020 09:44:38 -73.77,-151.82 85.44 11/25/2020 09:45:29 -73.79,-151.82 85.42 2.72 51
6 11/28/2020 03:39:51 -73.31, -59.69 85.41 11/28/2020 03:38:41 -73.26, -61.29 85.43 51.34 70
7 11/28/2020 04:29:27 73.74, 107.04 95.04 11/28/2020 04:29:12 73.73, 107.11 95.03 2.43 15
8 11/28/2020 05:18:53 -73.77, -85.40 84.93 11/28/2020 05:19:52 -73.79, -85.41 84.91 2.32 59
9 11/30/2020 23:14:12 -73.58, 6.17 84.67 11/30/2020 23:12:59 -73.56, 5.79 84.68 12.25 73
10 12/01/2020 00:03:43 73.75, 173.44 95.51 12/01/2020 00:03:36 73.73, 173.51 95.49 3.27 7
11 12/01/2020 00:53:09 -73.78, -18.99 84.45 12/01/2020 00:54:16 -73.79, -19.01 84.45 0.98 67
12 12/03/2020 18:48:29 -73.65, 72.45 84.19 12/03/2020 18:47:21 -73.65, 72.42 84.18 1.17 68
13 12/03/2020 19:37:58 73.72,-120.06 95.89 12/03/2020 19:38:00 73.72,-120.09 95.90 1.12 2
